Time,TemperatureF,DewpointF,PressureIn,WindDirection,WindDirectionDegrees,WindSpeedMPH,WindSpeedGustMPH,Humidity,HourlyPrecipIn,Conditions,Clouds,dailyrainin,SoftwareType,DateUTC
2013-09-03 00:05:00,56.1,53.8,29.99,SW,227,0.0,0.0,92,0.00,,,0.00,Wunderground v.1.15,2013-09-03 05:05:00,
2013-09-03 00:10:00,56.0,53.7,29.99,SW,227,0.0,0.0,92,0.00,,,0.00,Wunderground v.1.15,2013-09-03 05:10:00,
2013-09-03 00:20:00,55.8,53.5,29.99,SW,227,0.0,0.0,92,0.00,,,0.00,Wunderground v.1.15,2013-09-03 05:20:00,
2013-09-03 00:25:00,55.7,53.4,29.99,SW,227,0.0,0.0,92,0.00,,,0.00,Wunderground v.1.15,2013-09-03 05:25:00,
2013-09-03 00:30:00,55.5,53.2,29.99,SW,227,0.0,0.0,92,0.00,,,0.00,Wunderground v.1.15,2013-09-03 05:30:00,
2013-09-03 00:35:00,55.2,52.9,29.99,SW,227,0.0,0.0,92,0.00,,,0.00,Wunderground v.1.15,2013-09-03 05:35:00,
2013-09-03 00:40:00,55.1,52.8,29.99,SW,227,0.0,0.0,92,0.00,,,0.00,Wunderground v.1.15,2013-09-03 05:40:00,
2013-09-03 00:50:00,54.9,52.6,29.99,SW,227,0.0,0.0,92,0.00,,,0.00,Wunderground v.1.15,2013-09-03 05:50:00,
2013-09-03 00:55:00,54.8,52.5,30.00,SW,227,0.0,0.0,92,0.00,,,0.00,Wunderground v.1.15,2013-09-03 05:55:00,
2013-09-03 01:00:00,54.8,52.8,29.99,SW,227,0.0,0.0,93,0.00,,,0.00,Wunderground v.1.15,2013-09-03 06:00:00,
2013-09-03 01:10:00,55.2,53.2,29.99,SW,227,0.0,0.0,93,0.00,,,0.00,Wunderground v.1.15,2013-09-03 06:10:00,
2013-09-03 01:20:00,55.2,53.2,30.00,SW,227,0.0,0.0,93,0.00,,,0.00,Wunderground v.1.15,2013-09-03 06:20:00,
2013-09-03 01:25:00,55.0,53.0,29.99,SW,227,0.0,0.0,93,0.00,,,0.00,Wunderground v.1.15,2013-09-03 06:25:00,
2013-09-03 01:35:00,54.9,52.9,30.00,SW,227,0.0,0.0,93,0.00,,,0.00,Wunderground v.1.15,2013-09-03 06:35:00,
2013-09-03 01:40:00,54.9,53.2,30.00,SW,227,0.0,0.0,94,0.00,,,0.00,Wunderground v.1.15,2013-09-03 06:40:00,
2013-09-03 01:50:00,54.9,53.2,30.00,SW,227,0.0,0.0,94,0.00,,,0.00,Wunderground v.1.15,2013-09-03 06:50:00,
2013-09-03 02:00:00,55.1,53.4,30.00,SW,227,0.0,0.0,94,0.00,,,0.00,Wunderground v.1.15,2013-09-03 07:00:00,
2013-09-03 02:10:00,55.0,53.3,30.00,SW,227,0.0,0.0,94,0.00,,,0.00,Wunderground v.1.15,2013-09-03 07:10:00,
2013-09-03 02:20:00,54.9,53.2,30.00,SW,227,0.0,0.0,94,0.00,,,0.00,Wunderground v.1.15,2013-09-03 07:20:00,
2013-09-03 02:25:00,54.8,53.1,30.00,SW,227,0.0,0.0,94,0.00,,,0.00,Wunderground v.1.15,2013-09-03 07:25:00,
2013-09-03 02:30:00,54.7,53.0,30.00,SW,227,0.0,0.0,94,0.00,,,0.00,Wunderground v.1.15,2013-09-03 07:30:00,
2013-09-03 02:40:00,54.7,53.0,30.00,SW,227,0.0,0.0,94,0.00,,,0.00,Wunderground v.1.15,2013-09-03 07:40:00,
2013-09-03 02:50:00,54.5,52.5,30.00,SW,227,0.0,0.0,93,0.00,,,0.00,Wunderground v.1.15,2013-09-03 07:50:00,
2013-09-03 02:55:00,54.6,52.6,30.00,SW,227,0.0,0.0,93,0.00,,,0.00,Wunderground v.1.15,2013-09-03 07:55:00,
2013-09-03 03:05:00,54.4,52.4,30.00,SW,227,0.0,0.0,93,0.00,,,0.00,Wunderground v.1.15,2013-09-03 08:05:00,
2013-09-03 03:10:00,54.2,52.2,30.00,SW,227,0.0,0.0,93,0.00,,,0.00,Wunderground v.1.15,2013-09-03 08:10:00,
2013-09-03 03:20:00,54.0,52.0,30.00,West,263,0.0,0.0,93,0.00,,,0.00,Wunderground v.1.15,2013-09-03 08:20:00,
2013-09-03 03:30:00,54.1,52.4,30.01,West,263,0.0,0.0,94,0.00,,,0.00,Wunderground v.1.15,2013-09-03 08:30:00,
2013-09-03 03:40:00,53.9,52.2,30.01,West,263,0.0,0.0,94,0.00,,,0.00,Wunderground v.1.15,2013-09-03 08:40:00,
2013-09-03 03:50:00,53.7,52.0,30.01,West,263,0.0,0.0,94,0.00,,,0.00,Wunderground v.1.15,2013-09-03 08:50:00,
2013-09-03 03:55:00,53.8,52.1,30.01,West,263,0.0,0.0,94,0.00,,,0.00,Wunderground v.1.15,2013-09-03 08:55:00,
2013-09-03 04:00:00,53.7,52.0,30.01,West,263,0.0,0.0,94,0.00,,,0.00,Wunderground v.1.15,2013-09-03 09:00:00,
2013-09-03 04:10:00,53.4,51.7,30.01,West,263,0.0,0.0,94,0.00,,,0.00,Wunderground v.1.15,2013-09-03 09:10:00,
2013-09-03 04:20:00,53.3,51.6,30.01,West,263,0.0,0.0,94,0.00,,,0.00,Wunderground v.1.15,2013-09-03 09:20:00,
2013-09-03 04:30:00,53.2,51.5,30.02,West,263,0.0,0.0,94,0.00,,,0.00,Wunderground v.1.15,2013-09-03 09:30:00,
2013-09-03 04:40:00,53.2,51.5,30.02,West,263,0.0,0.0,94,0.00,,,0.00,Wunderground v.1.15,2013-09-03 09:40:00,
2013-09-03 04:50:00,53.1,51.4,30.02,West,263,0.0,0.0,94,0.00,,,0.00,Wunderground v.1.15,2013-09-03 09:50:00,
2013-09-03 04:55:00,53.2,51.5,30.02,West,263,0.0,0.0,94,0.00,,,0.00,Wunderground v.1.15,2013-09-03 09:55:00,
2013-09-03 05:00:00,53.3,51.6,30.02,West,263,0.0,0.0,94,0.00,,,0.00,Wunderground v.1.15,2013-09-03 10:00:00,
2013-09-03 05:10:00,53.1,51.1,30.02,West,263,0.0,0.0,93,0.00,,,0.00,Wunderground v.1.15,2013-09-03 10:10:00,
2013-09-03 05:20:00,53.2,51.5,30.03,West,263,0.0,0.0,94,0.00,,,0.00,Wunderground v.1.15,2013-09-03 10:20:00,
2013-09-03 05:25:00,53.1,51.4,30.03,West,263,0.0,0.0,94,0.00,,,0.00,Wunderground v.1.15,2013-09-03 10:25:00,
2013-09-03 05:30:00,53.2,51.5,30.03,West,263,0.0,0.0,94,0.00,,,0.00,Wunderground v.1.15,2013-09-03 10:30:00,
2013-09-03 05:40:00,52.9,51.2,30.03,West,263,0.0,0.0,94,0.00,,,0.00,Wunderground v.1.15,2013-09-03 10:40:00,
2013-09-03 05:50:00,53.0,51.3,30.03,West,263,0.0,0.0,94,0.00,,,0.00,Wunderground v.1.15,2013-09-03 10:50:00,
2013-09-03 05:55:00,52.9,51.2,30.04,West,263,0.0,0.0,94,0.00,,,0.00,Wunderground v.1.15,2013-09-03 10:55:00,
2013-09-03 06:05:00,52.7,51.0,30.04,West,263,0.0,0.0,94,0.00,,,0.00,Wunderground v.1.15,2013-09-03 11:05:00,
2013-09-03 06:10:00,52.5,50.8,30.04,West,263,0.0,0.0,94,0.00,,,0.00,Wunderground v.1.15,2013-09-03 11:10:00,
2013-09-03 06:20:00,52.4,50.7,30.04,West,263,0.0,0.0,94,0.00,,,0.00,Wunderground v.1.15,2013-09-03 11:20:00,
2013-09-03 06:30:00,52.4,51.0,30.04,West,263,0.0,0.0,95,0.00,,,0.00,Wunderground v.1.15,2013-09-03 11:30:00,
2013-09-03 06:40:00,52.6,51.2,30.04,West,263,0.0,0.0,95,0.00,,,0.00,Wunderground v.1.15,2013-09-03 11:40:00,
2013-09-03 06:50:00,52.6,51.2,30.05,West,263,0.0,0.0,95,0.00,,,0.00,Wunderground v.1.15,2013-09-03 11:50:00,
2013-09-03 06:55:00,52.6,51.2,30.05,West,263,0.0,0.0,95,0.00,,,0.00,Wunderground v.1.15,2013-09-03 11:55:00,
2013-09-03 07:00:00,52.7,51.3,30.05,West,263,0.0,0.0,95,0.00,,,0.00,Wunderground v.1.15,2013-09-03 12:00:00,
2013-09-03 07:10:00,53.0,51.6,30.05,West,263,0.0,0.0,95,0.00,,,0.00,Wunderground v.1.15,2013-09-03 12:10:00,
2013-09-03 07:20:00,53.3,52.2,30.05,West,263,0.0,0.0,96,0.00,,,0.00,Wunderground v.1.15,2013-09-03 12:20:00,
2013-09-03 07:25:00,53.5,52.4,30.06,West,263,0.0,0.0,96,0.00,,,0.00,Wunderground v.1.15,2013-09-03 12:25:00,
2013-09-03 07:35:00,53.7,52.3,30.06,West,263,0.0,0.0,95,0.00,,,0.00,Wunderground v.1.15,2013-09-03 12:35:00,
2013-09-03 07:40:00,53.8,52.4,30.06,West,263,0.0,0.0,95,0.00,,,0.00,Wunderground v.1.15,2013-09-03 12:40:00,
2013-09-03 07:50:00,54.2,52.8,30.06,West,263,0.0,0.0,95,0.00,,,0.00,Wunderground v.1.15,2013-09-03 12:50:00,
2013-09-03 08:00:00,54.8,53.4,30.07,West,263,0.0,0.0,95,0.00,,,0.00,Wunderground v.1.15,2013-09-03 13:00:00,
2013-09-03 08:10:00,55.6,54.2,30.07,West,263,0.0,0.0,95,0.00,,,0.00,Wunderground v.1.15,2013-09-03 13:10:00,
2013-09-03 08:20:00,56.6,54.6,30.07,WSW,245,0.0,0.0,93,0.00,,,0.00,Wunderground v.1.15,2013-09-03 13:20:00,
2013-09-03 08:25:00,56.9,54.6,30.07,WSW,245,0.0,0.0,92,0.00,,,0.00,Wunderground v.1.15,2013-09-03 13:25:00,
2013-09-03 08:30:00,57.3,55.0,30.07,WSW,245,0.0,0.0,92,0.00,,,0.00,Wunderground v.1.15,2013-09-03 13:30:00,
2013-09-03 08:40:00,58.0,55.4,30.08,WSW,245,0.0,0.0,91,0.00,,,0.00,Wunderground v.1.15,2013-09-03 13:40:00,
2013-09-03 08:50:00,58.8,55.9,30.08,WSW,245,0.0,0.0,90,0.00,,,0.00,Wunderground v.1.15,2013-09-03 13:50:00,
2013-09-03 08:55:00,59.3,55.7,30.08,WSW,245,0.0,0.0,88,0.00,,,0.00,Wunderground v.1.15,2013-09-03 13:55:00,
2013-09-03 09:05:00,59.5,55.9,30.08,WSW,245,0.0,0.0,88,0.00,,,0.00,Wunderground v.1.15,2013-09-03 14:05:00,
2013-09-03 09:10:00,59.8,55.9,30.08,WSW,245,0.0,0.0,87,0.00,,,0.00,Wunderground v.1.15,2013-09-03 14:10:00,
2013-09-03 09:20:00,60.5,55.6,30.08,WSW,237,0.0,0.0,84,0.00,,,0.00,Wunderground v.1.15,2013-09-03 14:20:00,
2013-09-03 09:25:00,61.1,55.9,30.08,WSW,237,0.0,0.0,83,0.00,,,0.00,Wunderground v.1.15,2013-09-03 14:25:00,
2013-09-03 09:30:00,61.3,56.1,30.08,WSW,237,0.0,0.0,83,0.00,,,0.00,Wunderground v.1.15,2013-09-03 14:30:00,
2013-09-03 09:40:00,61.6,56.4,30.08,WSW,237,0.0,0.0,83,0.00,,,0.00,Wunderground v.1.15,2013-09-03 14:40:00,
2013-09-03 09:50:00,62.5,57.3,30.08,WNW,289,0.0,0.0,83,0.00,,,0.00,Wunderground v.1.15,2013-09-03 14:50:00,
2013-09-03 09:55:00,62.7,57.1,30.08,WNW,289,0.0,0.0,82,0.00,,,0.00,Wunderground v.1.15,2013-09-03 14:55:00,
2013-09-03 10:00:00,62.8,56.9,30.08,WNW,292,0.0,0.0,81,0.00,,,0.00,Wunderground v.1.15,2013-09-03 15:00:00,
2013-09-03 10:10:00,63.3,56.0,30.08,NW,305,0.0,0.0,77,0.00,,,0.00,Wunderground v.1.15,2013-09-03 15:10:00,
2013-09-03 10:20:00,64.0,57.4,30.08,NW,305,0.0,0.0,79,0.00,,,0.00,Wunderground v.1.15,2013-09-03 15:20:00,
2013-09-03 10:30:00,64.7,57.0,30.08,WNW,303,0.0,0.0,76,0.00,,,0.00,Wunderground v.1.15,2013-09-03 15:30:00,
2013-09-03 10:40:00,65.3,56.8,30.08,NW,317,0.0,0.0,74,0.00,,,0.00,Wunderground v.1.15,2013-09-03 15:40:00,
2013-09-03 10:50:00,65.7,57.2,30.08,West,263,0.0,0.0,74,0.00,,,0.00,Wunderground v.1.15,2013-09-03 15:50:00,
2013-09-03 10:55:00,65.9,57.4,30.08,West,263,0.0,0.0,74,0.00,,,0.00,Wunderground v.1.15,2013-09-03 15:55:00,
2013-09-03 11:00:00,66.2,57.3,30.08,South,178,0.0,0.0,73,0.00,,,0.00,Wunderground v.1.15,2013-09-03 16:00:00,
2013-09-03 11:10:00,66.3,57.0,30.08,SSW,204,0.0,0.0,72,0.00,,,0.00,Wunderground v.1.15,2013-09-03 16:10:00,
2013-09-03 11:20:00,66.3,57.4,30.08,WSW,238,0.0,0.0,73,0.00,,,0.00,Wunderground v.1.15,2013-09-03 16:20:00,
2013-09-03 11:25:00,66.6,56.1,30.08,WNW,283,0.0,1.0,69,0.00,,,0.00,Wunderground v.1.15,2013-09-03 16:25:00,
2013-09-03 11:30:00,66.8,57.1,30.07,WNW,288,0.0,0.0,71,0.00,,,0.00,Wunderground v.1.15,2013-09-03 16:30:00,
2013-09-03 11:40:00,67.4,58.8,30.07,SSW,212,0.0,0.0,74,0.00,,,0.00,Wunderground v.1.15,2013-09-03 16:40:00,
2013-09-03 11:50:00,68.0,58.6,30.07,SSW,211,0.0,0.0,72,0.00,,,0.00,Wunderground v.1.15,2013-09-03 16:50:00,
2013-09-03 11:55:00,68.3,58.9,30.07,SW,215,0.0,0.0,72,0.00,,,0.00,Wunderground v.1.15,2013-09-03 16:55:00,
2013-09-03 12:05:00,68.6,56.4,30.07,WSW,240,0.0,0.0,65,0.00,,,0.00,Wunderground v.1.15,2013-09-03 17:05:00,
2013-09-03 12:10:00,69.0,56.3,30.07,WSW,240,0.0,0.0,64,0.00,,,0.00,Wunderground v.1.15,2013-09-03 17:10:00,
2013-09-03 12:20:00,69.2,58.2,30.07,WSW,251,0.0,0.0,68,0.00,,,0.00,Wunderground v.1.15,2013-09-03 17:20:00,
2013-09-03 12:25:00,69.1,56.8,30.06,WSW,251,0.0,0.0,65,0.00,,,0.00,Wunderground v.1.15,2013-09-03 17:25:00,
2013-09-03 12:30:00,69.2,57.4,30.06,WNW,296,0.0,0.0,66,0.00,,,0.00,Wunderground v.1.15,2013-09-03 17:30:00,
2013-09-03 12:40:00,69.6,58.6,30.06,WSW,257,0.0,0.0,68,0.00,,,0.00,Wunderground v.1.15,2013-09-03 17:40:00,
2013-09-03 12:50:00,69.7,56.5,30.06,West,274,0.0,0.0,63,0.00,,,0.00,Wunderground v.1.15,2013-09-03 17:50:00,
2013-09-03 12:55:00,70.1,57.8,30.06,NNW,332,0.0,0.0,65,0.00,,,0.00,Wunderground v.1.15,2013-09-03 17:55:00,
2013-09-03 13:05:00,70.1,60.3,30.06,NNW,332,0.0,0.0,71,0.00,,,0.00,Wunderground v.1.15,2013-09-03 18:05:00,
2013-09-03 13:10:00,70.4,58.5,30.06,WNW,290,0.0,0.0,66,0.00,,,0.00,Wunderground v.1.15,2013-09-03 18:10:00,
2013-09-03 13:20:00,70.4,58.1,30.05,NNW,337,0.0,0.0,65,0.00,,,0.00,Wunderground v.1.15,2013-09-03 18:20:00,
2013-09-03 13:25:00,70.4,57.2,30.05,SW,223,0.0,0.0,63,0.00,,,0.00,Wunderground v.1.15,2013-09-03 18:25:00,
2013-09-03 13:30:00,71.1,57.9,30.05,SW,224,0.0,0.0,63,0.00,,,0.00,Wunderground v.1.15,2013-09-03 18:30:00,
2013-09-03 13:40:00,71.6,58.3,30.05,North,356,0.0,0.0,63,0.00,,,0.00,Wunderground v.1.15,2013-09-03 18:40:00,
2013-09-03 13:50:00,72.2,58.9,30.05,SW,222,0.0,0.0,63,0.00,,,0.00,Wunderground v.1.15,2013-09-03 18:50:00,
2013-09-03 13:55:00,72.2,57.5,30.05,SW,222,0.0,0.0,60,0.00,,,0.00,Wunderground v.1.15,2013-09-03 18:55:00,
2013-09-03 14:00:00,72.6,57.0,30.04,SW,222,0.0,0.0,58,0.00,,,0.00,Wunderground v.1.15,2013-09-03 19:00:00,
2013-09-03 14:10:00,72.8,60.8,30.04,SW,224,0.0,0.0,66,0.00,,,0.00,Wunderground v.1.15,2013-09-03 19:10:00,
2013-09-03 14:20:00,72.8,58.6,30.04,SW,229,0.0,0.0,61,0.00,,,0.00,Wunderground v.1.15,2013-09-03 19:20:00,
2013-09-03 14:25:00,73.4,56.7,30.04,SW,229,0.0,0.0,56,0.00,,,0.00,Wunderground v.1.15,2013-09-03 19:25:00,
2013-09-03 14:30:00,73.7,58.0,30.03,WNW,291,0.0,0.0,58,0.00,,,0.00,Wunderground v.1.15,2013-09-03 19:30:00,
2013-09-03 14:40:00,73.5,59.2,30.03,NW,325,0.0,0.0,61,0.00,,,0.00,Wunderground v.1.15,2013-09-03 19:40:00,
2013-09-03 14:50:00,74.1,57.4,30.02,North,356,0.0,0.0,56,0.00,,,0.00,Wunderground v.1.15,2013-09-03 19:50:00,
2013-09-03 14:55:00,73.9,59.1,30.02,NNW,346,0.0,0.0,60,0.00,,,0.00,Wunderground v.1.15,2013-09-03 19:55:00,
2013-09-03 15:00:00,73.2,60.3,30.02,NNW,346,0.0,0.0,64,0.00,,,0.00,Wunderground v.1.15,2013-09-03 20:00:00,
2013-09-03 15:10:00,72.6,59.3,30.02,NNW,346,0.0,0.0,63,0.00,,,0.00,Wunderground v.1.15,2013-09-03 20:10:00,
2013-09-03 15:20:00,72.8,59.5,30.01,North,357,0.0,0.0,63,0.00,,,0.00,Wunderground v.1.15,2013-09-03 20:20:00,
2013-09-03 15:25:00,73.3,59.0,30.01,North,357,0.0,0.0,61,0.00,,,0.00,Wunderground v.1.15,2013-09-03 20:25:00,
2013-09-03 15:30:00,73.6,58.4,30.01,North,357,0.0,0.0,59,0.00,,,0.00,Wunderground v.1.15,2013-09-03 20:30:00,
2013-09-03 15:40:00,73.4,58.7,30.01,NNW,346,0.0,0.0,60,0.00,,,0.00,Wunderground v.1.15,2013-09-03 20:40:00,
2013-09-03 15:50:00,72.1,58.8,30.01,NNW,346,0.0,0.0,63,0.00,,,0.00,Wunderground v.1.15,2013-09-03 20:50:00,
2013-09-03 15:55:00,71.5,58.7,30.01,NNW,346,0.0,0.0,64,0.00,,,0.00,Wunderground v.1.15,2013-09-03 20:55:00,
2013-09-03 16:05:00,71.3,58.5,30.01,NNW,346,0.0,0.0,64,0.00,,,0.00,Wunderground v.1.15,2013-09-03 21:05:00,
2013-09-03 16:10:00,71.0,59.1,30.01,NNW,346,0.0,0.0,66,0.00,,,0.00,Wunderground v.1.15,2013-09-03 21:10:00,
2013-09-03 16:20:00,70.3,58.8,30.02,NNW,346,0.0,0.0,67,0.00,,,0.00,Wunderground v.1.15,2013-09-03 21:20:00,
2013-09-03 16:30:00,70.6,60.7,30.01,NNW,346,0.0,0.0,71,0.00,,,0.00,Wunderground v.1.15,2013-09-03 21:30:00,
2013-09-03 16:40:00,71.4,59.9,30.01,NNW,346,0.0,0.0,67,0.00,,,0.00,Wunderground v.1.15,2013-09-03 21:40:00,
2013-09-03 16:50:00,71.2,60.1,30.01,NNW,346,0.0,0.0,68,0.00,,,0.00,Wunderground v.1.15,2013-09-03 21:50:00,
2013-09-03 16:55:00,70.9,59.8,30.01,NNW,346,0.0,0.0,68,0.00,,,0.00,Wunderground v.1.15,2013-09-03 21:55:00,
2013-09-03 17:00:00,70.6,59.5,30.01,NNW,346,0.0,0.0,68,0.00,,,0.00,Wunderground v.1.15,2013-09-03 22:00:00,
2013-09-03 17:10:00,70.2,60.4,30.01,NNW,346,0.0,0.0,71,0.00,,,0.00,Wunderground v.1.15,2013-09-03 22:10:00,
2013-09-03 17:20:00,69.8,60.0,30.01,NNW,346,0.0,0.0,71,0.00,,,0.00,Wunderground v.1.15,2013-09-03 22:20:00,
2013-09-03 17:25:00,69.6,60.2,30.01,NNW,346,0.0,0.0,72,0.00,,,0.00,Wunderground v.1.15,2013-09-03 22:25:00,
2013-09-03 17:35:00,69.2,59.4,30.01,NNW,346,0.0,0.0,71,0.00,,,0.00,Wunderground v.1.15,2013-09-03 22:35:00,
2013-09-03 17:40:00,69.1,59.7,30.01,NNW,346,0.0,0.0,72,0.00,,,0.00,Wunderground v.1.15,2013-09-03 22:40:00,
2013-09-03 17:50:00,68.8,59.8,30.01,NNW,346,0.0,0.0,73,0.00,,,0.00,Wunderground v.1.15,2013-09-03 22:50:00,
2013-09-03 18:00:00,68.3,58.9,30.00,NNW,346,0.0,0.0,72,0.00,,,0.00,Wunderground v.1.15,2013-09-03 23:00:00,
2013-09-03 18:10:00,67.9,59.3,30.00,NNW,346,0.0,0.0,74,0.00,,,0.00,Wunderground v.1.15,2013-09-03 23:10:00,
2013-09-03 18:20:00,67.4,59.2,30.00,NNW,346,0.0,0.0,75,0.00,,,0.00,Wunderground v.1.15,2013-09-03 23:20:00,
2013-09-03 18:25:00,67.1,59.3,30.00,NNW,346,0.0,0.0,76,0.00,,,0.00,Wunderground v.1.15,2013-09-03 23:25:00,
2013-09-03 18:30:00,66.7,58.9,30.00,NNW,346,0.0,0.0,76,0.00,,,0.00,Wunderground v.1.15,2013-09-03 23:30:00,
2013-09-03 18:40:00,66.2,59.1,30.00,NNW,346,0.0,0.0,78,0.00,,,0.00,Wunderground v.1.15,2013-09-03 23:40:00,
2013-09-03 18:50:00,65.7,59.4,30.00,NNW,346,0.0,0.0,80,0.00,,,0.00,Wunderground v.1.15,2013-09-03 23:50:00,
2013-09-03 19:00:00,65.1,59.1,30.00,NNW,346,0.0,0.0,81,0.00,,,0.00,Wunderground v.1.15,2013-09-04 00:00:00,
2013-09-03 19:10:00,64.5,58.9,30.00,NNW,346,0.0,0.0,82,0.00,,,0.00,Wunderground v.1.15,2013-09-04 00:10:00,
2013-09-03 19:20:00,64.0,58.7,30.00,NNW,346,0.0,0.0,83,0.00,,,0.00,Wunderground v.1.15,2013-09-04 00:20:00,
2013-09-03 19:25:00,63.8,58.9,30.00,NNW,346,0.0,0.0,84,0.00,,,0.00,Wunderground v.1.15,2013-09-04 00:25:00,
2013-09-03 19:30:00,63.6,58.7,30.00,NNW,346,0.0,0.0,84,0.00,,,0.00,Wunderground v.1.15,2013-09-04 00:30:00,
2013-09-03 19:40:00,63.1,58.5,30.01,NNW,346,0.0,0.0,85,0.00,,,0.00,Wunderground v.1.15,2013-09-04 00:40:00,
2013-09-03 19:50:00,62.7,58.5,30.01,NNW,346,0.0,0.0,86,0.00,,,0.00,Wunderground v.1.15,2013-09-04 00:50:00,
2013-09-03 19:55:00,62.6,58.4,30.01,NNW,346,0.0,0.0,86,0.00,,,0.00,Wunderground v.1.15,2013-09-04 00:55:00,
2013-09-03 20:00:00,62.5,58.3,30.02,NNW,346,0.0,0.0,86,0.00,,,0.00,Wunderground v.1.15,2013-09-04 01:00:00,
2013-09-03 20:10:00,62.2,58.0,30.02,NNW,346,0.0,0.0,86,0.00,,,0.00,Wunderground v.1.15,2013-09-04 01:10:00,
2013-09-03 20:20:00,62.1,58.2,30.01,NNW,346,0.0,0.0,87,0.00,,,0.00,Wunderground v.1.15,2013-09-04 01:20:00,
2013-09-03 20:30:00,61.8,57.9,30.02,NNW,346,0.0,0.0,87,0.00,,,0.00,Wunderground v.1.15,2013-09-04 01:30:00,
2013-09-03 20:40:00,61.6,58.0,30.02,NNW,346,0.0,0.0,88,0.00,,,0.00,Wunderground v.1.15,2013-09-04 01:40:00,
2013-09-03 20:50:00,61.4,57.8,30.02,NNW,346,0.0,0.0,88,0.00,,,0.00,Wunderground v.1.15,2013-09-04 01:50:00,
2013-09-03 20:55:00,61.3,57.7,30.02,NNW,346,0.0,0.0,88,0.00,,,0.00,Wunderground v.1.15,2013-09-04 01:55:00,
2013-09-03 21:00:00,61.2,57.6,30.02,NNW,346,0.0,0.0,88,0.00,,,0.00,Wunderground v.1.15,2013-09-04 02:00:00,
2013-09-03 21:10:00,61.1,57.8,30.02,NNW,346,0.0,0.0,89,0.00,,,0.00,Wunderground v.1.15,2013-09-04 02:10:00,
2013-09-03 21:20:00,60.8,57.5,30.02,NNW,346,0.0,0.0,89,0.00,,,0.00,Wunderground v.1.15,2013-09-04 02:20:00,
2013-09-03 21:25:00,60.6,57.0,30.02,NNW,346,0.0,0.0,88,0.00,,,0.00,Wunderground v.1.15,2013-09-04 02:25:00,
2013-09-03 21:35:00,60.2,56.6,30.02,NNW,346,0.0,0.0,88,0.00,,,0.00,Wunderground v.1.15,2013-09-04 02:35:00,
2013-09-03 21:40:00,60.1,56.8,30.02,NNW,346,0.0,0.0,89,0.00,,,0.00,Wunderground v.1.15,2013-09-04 02:40:00,
2013-09-03 21:50:00,59.9,57.0,30.02,NNW,346,0.0,0.0,90,0.00,,,0.00,Wunderground v.1.15,2013-09-04 02:50:00,
2013-09-03 21:55:00,59.8,56.9,30.02,NNW,346,0.0,0.0,90,0.00,,,0.00,Wunderground v.1.15,2013-09-04 02:55:00,
2013-09-03 22:00:00,59.7,57.1,30.02,NNW,346,0.0,0.0,91,0.00,,,0.00,Wunderground v.1.15,2013-09-04 03:00:00,
2013-09-03 22:10:00,59.5,57.2,30.02,NNW,346,0.0,0.0,92,0.00,,,0.00,Wunderground v.1.15,2013-09-04 03:10:00,
2013-09-03 22:20:00,59.2,56.6,30.02,NNW,346,0.0,0.0,91,0.00,,,0.00,Wunderground v.1.15,2013-09-04 03:20:00,
2013-09-03 22:25:00,59.1,56.5,30.02,NNW,346,0.0,0.0,91,0.00,,,0.00,Wunderground v.1.15,2013-09-04 03:25:00,
2013-09-03 22:30:00,59.1,56.5,30.02,NNW,346,0.0,0.0,91,0.00,,,0.00,Wunderground v.1.15,2013-09-04 03:30:00,
2013-09-03 22:40:00,59.3,56.7,30.02,NNW,346,0.0,0.0,91,0.00,,,0.00,Wunderground v.1.15,2013-09-04 03:40:00,
2013-09-03 22:50:00,59.3,56.7,30.02,NNW,346,0.0,0.0,91,0.00,,,0.00,Wunderground v.1.15,2013-09-04 03:50:00,
2013-09-03 23:00:00,59.2,56.6,30.02,NNW,346,0.0,0.0,91,0.00,,,0.00,Wunderground v.1.15,2013-09-04 04:00:00,
2013-09-03 23:05:00,59.0,56.4,30.02,NNW,346,0.0,0.0,91,0.00,,,0.00,Wunderground v.1.15,2013-09-04 04:05:00,
2013-09-03 23:10:00,59.1,56.5,30.02,NNW,346,0.0,0.0,91,0.00,,,0.00,Wunderground v.1.15,2013-09-04 04:10:00,
2013-09-03 23:15:00,59.0,56.7,30.02,NNW,346,0.0,0.0,92,0.00,,,0.00,Wunderground v.1.15,2013-09-04 04:15:00,
2013-09-03 23:20:00,59.0,56.4,30.02,NNW,346,0.0,0.0,91,0.00,,,0.00,Wunderground v.1.15,2013-09-04 04:20:00,
2013-09-03 23:25:00,58.8,56.2,30.02,NNW,346,0.0,0.0,91,0.00,,,0.00,Wunderground v.1.15,2013-09-04 04:25:00,
2013-09-03 23:30:00,58.7,56.1,30.02,NNW,346,0.0,0.0,91,0.00,,,0.00,Wunderground v.1.15,2013-09-04 04:30:00,
2013-09-03 23:40:00,58.6,56.3,30.02,NNW,346,0.0,0.0,92,0.00,,,0.00,Wunderground v.1.15,2013-09-04 04:40:00,
2013-09-03 23:45:00,58.4,56.1,30.02,NNW,346,0.0,0.0,92,0.00,,,0.00,Wunderground v.1.15,2013-09-04 04:45:00,
2013-09-03 23:50:00,58.3,56.0,30.02,NNW,346,0.0,0.0,92,0.00,,,0.00,Wunderground v.1.15,2013-09-04 04:50:00,
2013-09-03 23:55:00,58.2,55.9,30.02,NNW,346,0.0,0.0,92,0.00,,,0.00,Wunderground v.1.15,2013-09-04 04:55:00,